Weather History for KLOZ - September, 2013

Change the Weather History Date:

Friday, September 13, 2013

  Actual Average Record
Temperature  
Mean Temperature 63 °F 69 °F  
Max Temperature 74 °F 81 °F 94 °F (1998)
Min Temperature 52 °F 58 °F 43 °F (1964)
Degree Days  
Heating Degree Days 2 1  
Month to date heating degree days 2 3  
Since 1 July heating degree days 2 4  
Cooling Degree Days 0 5  
Month to date cooling degree days 117 87  
Year to date cooling degree days 1009 1111  
Growing Degree Days 14 (Base 50)    
Moisture  
Dew Point 56 °F    
Average Humidity 69    
Maximum Humidity 93    
Minimum Humidity 44    
Precipitation  
Precipitation 0.00 in 0.12 in 2.02 in (1966)
Month to date precipitation 0.81 1.44  
Year to date precipitation 41.85 34.12  
Sea Level Pressure  
Sea Level Pressure 29.97 in    
Wind  
Wind Speed 6 mph (NNW)    
Max Wind Speed 16 mph    
Max Gust Speed 22 mph    
Visibility 7 miles    
Events Fog    
T = Trace of Precipitation, MM = Missing Value Source: NWS Daily Summary

Daily Weather History Graph

Daily Weather History Graph

Search for Another Location

Airport or City:

Trip Planner

Search our weather history database for the weather conditions in past years. The results will help you decide how hot, cold, wet, or windy it might be!

Date:

Astronomy

Sep. 13, 2013 Rise Set
Actual Time 7:17 AM EDT 7:46 PM EDT
Civil Twilight 6:50 AM EDT 8:12 PM EDT
Nautical Twilight 6:20 AM EDT 8:43 PM EDT
Astronomical Twilight 5:48 AM EDT 9:14 PM EDT
Moon 3:29 PM EDT (9/13) 12:51 AM EDT (9/13)
Length of Visible Light 13h 21m
Length of Day
12h 29m
First Quarter, 61% of the Moon is Illuminated
Sep 13
First Quarter
Sep 19
Full
Sep 26
Last Quarter
Oct 4
New
Oct 11
First Quarter

Hourly Weather History & Observations

Time (EDT) Temp. Dew Point Humidity Pressure Visibility Wind Dir Wind Speed Gust Speed Precip Events Conditions
12:05 AM 66.2 °F 64.4 °F 94% 29.95 in 2.0 mi SSW 4.6 mph - N/A   Scattered Clouds
12:14 AM 66.2 °F 64.4 °F 94% 29.95 in 4.0 mi West 3.5 mph - N/A   Partly Cloudy
12:50 AM 66.2 °F 64.4 °F 94% 29.96 in 1.8 mi Calm Calm - N/A   Scattered Clouds
12:53 AM 66.9 °F 64.9 °F 93% 29.92 in 1.8 mi Calm Calm - N/A   Scattered Clouds
1:00 AM 66.2 °F 64.4 °F 94% 29.95 in 1.5 mi WSW 3.5 mph - N/A   Mostly Cloudy
1:09 AM 66.2 °F 64.4 °F 94% 29.95 in 0.2 mi WSW 3.5 mph - N/A Fog Fog
1:53 AM 66.0 °F 64.0 °F 93% 29.92 in 0.2 mi Calm Calm - 0.01 in Fog Fog
2:33 AM 66.2 °F 64.4 °F 94% 29.95 in 1.0 mi Calm Calm - N/A   Mist
2:48 AM 66.2 °F 64.4 °F 94% 29.94 in 2.5 mi Calm Calm - N/A   Overcast
2:53 AM 66.0 °F 64.0 °F 93% 29.91 in 2.0 mi Calm Calm - N/A   Overcast
3:00 AM 66.2 °F 64.4 °F 94% 29.94 in 1.5 mi Calm Calm - N/A   Overcast
3:41 AM 66.2 °F 64.4 °F 94% 29.94 in 2.0 mi WNW 3.5 mph - N/A   Overcast
3:53 AM 64.9 °F 63.0 °F 93% 29.90 in 2.5 mi WNW 4.6 mph - N/A   Overcast
4:03 AM 64.4 °F 62.6 °F 94% 29.94 in 3.0 mi Calm Calm - N/A   Overcast
4:31 AM 64.4 °F 62.6 °F 94% 29.94 in 4.0 mi Calm Calm - N/A   Partly Cloudy
4:53 AM 64.0 °F 62.1 °F 93% 29.91 in 6.0 mi West 3.5 mph - N/A   Clear
5:53 AM 63.0 °F 60.1 °F 90% 29.92 in 10.0 mi North 3.5 mph - N/A   Clear
6:53 AM 63.0 °F 60.1 °F 90% 29.94 in 10.0 mi North 5.8 mph - N/A   Partly Cloudy
7:53 AM 62.1 °F 59.0 °F 90% 29.96 in 8.0 mi North 3.5 mph - N/A   Partly Cloudy
8:41 AM 62.6 °F 57.2 °F 82% 30.00 in 10.0 mi North 10.4 mph - N/A   Mostly Cloudy
8:53 AM 63.0 °F 57.9 °F 84% 29.97 in 10.0 mi North 9.2 mph - N/A   Overcast
9:23 AM 62.6 °F 57.2 °F 82% 30.00 in 10.0 mi North 9.2 mph - N/A   Mostly Cloudy
9:41 AM 64.4 °F 57.2 °F 77% 30.01 in 10.0 mi North 10.4 mph 18.4 mph N/A   Scattered Clouds
9:53 AM 64.9 °F 55.9 °F 73% 29.99 in 10.0 mi NNE 10.4 mph - N/A   Partly Cloudy
10:08 AM 64.4 °F 55.4 °F 73% 30.02 in 10.0 mi North 10.4 mph 17.3 mph N/A   Mostly Cloudy
10:50 AM 66.2 °F 55.4 °F 68% 30.02 in 10.0 mi NNE 10.4 mph - N/A   Scattered Clouds
10:53 AM 66.9 °F 55.9 °F 68% 29.99 in 10.0 mi North 9.2 mph - N/A   Partly Cloudy
11:27 AM 68.0 °F 53.6 °F 60% 30.02 in 10.0 mi North 10.4 mph - N/A   Mostly Cloudy
11:34 AM 69.8 °F 53.6 °F 56% 30.02 in 10.0 mi NNE 11.5 mph - N/A   Scattered Clouds
11:48 AM 68.0 °F 53.6 °F 60% 30.02 in 10.0 mi North 12.7 mph - 0.01 in   Mostly Cloudy
11:53 AM 66.9 °F 52.0 °F 59% 29.99 in 10.0 mi North 8.1 mph - 0.01 in   Mostly Cloudy
12:02 PM 69.8 °F 51.8 °F 53% 30.02 in 10.0 mi North 11.5 mph - N/A   Scattered Clouds
12:53 PM 70.0 °F 48.0 °F 46% 29.99 in 10.0 mi NNW 8.1 mph - N/A   Clear
1:53 PM 71.1 °F 48.9 °F 45% 29.97 in 10.0 mi Variable 4.6 mph 16.1 mph N/A   Scattered Clouds
2:53 PM 72.0 °F 48.0 °F 43% 29.96 in 10.0 mi North 9.2 mph 17.3 mph N/A   Partly Cloudy
3:53 PM 71.1 °F 48.0 °F 44% 29.96 in 10.0 mi Variable 6.9 mph - N/A   Mostly Cloudy
4:53 PM 69.1 °F 48.0 °F 47% 29.96 in 10.0 mi NW 12.7 mph - N/A   Mostly Cloudy
5:53 PM 68.0 °F 48.0 °F 49% 29.96 in 10.0 mi NNW 11.5 mph - N/A   Scattered Clouds
6:53 PM 66.9 °F 46.0 °F 47% 29.98 in 10.0 mi NNW 8.1 mph - N/A   Clear
7:53 PM 63.0 °F 46.0 °F 54% 29.99 in 10.0 mi North 8.1 mph - N/A   Clear
8:53 PM 60.1 °F 46.9 °F 62% 30.01 in 10.0 mi NNE 6.9 mph - N/A   Clear
9:53 PM 57.9 °F 46.0 °F 65% 30.04 in 10.0 mi NNE 8.1 mph - N/A   Clear
10:53 PM 55.9 °F 45.0 °F 67% 30.04 in 10.0 mi Calm Calm - N/A   Clear
11:53 PM 54.0 °F 45.0 °F 72% 30.05 in 10.0 mi Calm Calm - N/A   Clear